Home   Weather   Rochester   Past weeks

Flag for USA Past Weather in Rochester, New York, USA — Yesterday and Last 2 Weeks

Now
39 °F

Overcast.


Feels Like: 33 °F
Forecast: 37 / 41 °F
Wind: 9 mph from West

Location: Greater Rochester International Airport

Current Time: Dec 7, 2016 at 7:49:36 am

Latest Report: Dec 7, 2016 at 6:54 am


Visibility: 10 mi

Pressure: 29.91 "Hg

Humidity: 86%

Dew Point: 35 °F

Location of RochesterLocation

Past Weather in Rochester — Graph

°F

Rochester Temperature Yesterday

Maximum temperature yesterday: 42 °F (at 12:54 pm)
Minimum temperature yesterday: 26 °F (at 5:54 am)
Average temperature yesterday: 34 °F

High & Low Weather Summary for the Past Weeks

 TemperatureHumidityPressure
High60 °F (Nov 29, 2:54 pm)100% (Nov 24, 9:54 pm)30.40 "Hg (Nov 24, 9:54 pm)
Low26 °F (Dec 6, 5:54 am)44% (Nov 28, 1:54 pm)29.39 "Hg (Nov 30, 9:54 pm)
Average40 °F79%30.03 "Hg
* Reported Nov 22 5:54 am — Dec 7 5:54 am, Rochester, Weather by CustomWeather, © 2016

Note: Actual official high and low records may vary slightly from our data, if they occured in-between our weather recording intervals... More about our weather records

Advertising

Rochester Weather History for the Previous 24 Hours

Scroll right to see more
 ConditionsComfort  
Time TempWeatherWind HumidityBarometerVisibility
5:54 am
Wed, Dec 7
39 °FLight rain. Overcast.20 mph93%29.88 "Hg8 mi
4:54 am38 °FDrizzle. Overcast.7 mph93%29.85 "Hg10 mi
3:54 am38 °FOvercast.8 mph90%29.82 "Hg10 mi
2:54 am37 °FDrizzle. Overcast.6 mph93%29.83 "Hg9 mi
1:54 am35 °FOvercast.3 mph92%29.81 "Hg9 mi
12:54 am35 °FDrizzle. Overcast.7 mph96%29.80 "Hg9 mi
11:54 pm
Tue, Dec 6
34 °FLight rain. Fog.9 mph97%29.81 "Hg4 mi
10:54 pm34 °FLight rain. Fog.10 mph97%29.82 "Hg5 mi
9:54 pm34 °FLight snow. Fog.9 mph92%29.83 "Hg4 mi
8:54 pm34 °FLight snow. Fog.9 mph92%29.84 "Hg1 mi
7:54 pm34 °FLight snow. Fog.9 mph92%29.85 "Hg1 mi
6:54 pm35 °FLight rain. Fog.9 mph92%29.88 "Hg4 mi
5:54 pm38 °FLight rain. Mostly cloudy.8 mph79%29.90 "Hg6 mi
4:54 pm40 °FMostly cloudy.8 mph68%29.88 "Hg10 mi
3:54 pm40 °FOvercast.13 mph70%29.88 "Hg10 mi
2:54 pm41 °FOvercast.13 mph67%29.89 "Hg10 mi
1:54 pm41 °FOvercast.15 mph67%29.91 "Hg10 mi
12:54 pm42 °FOvercast.15 mph65%29.94 "Hg10 mi
11:54 am41 °FOvercast.15 mph67%30.00 "Hg10 mi
10:54 am40 °FMore clouds than sun.10 mph73%30.04 "Hg10 mi
9:54 am35 °FMostly cloudy.6 mph78%30.07 "Hg7 mi
8:54 am31 °FMore clouds than sun.No wind89%30.09 "Hg8 mi
7:54 am28 °FBroken clouds.No wind89%30.11 "Hg8 mi
Weather by CustomWeather, © 2016

See weather overviewHow to use our weather pages